Find Starlink 32582

NORAD ID: 62033 Int'l Des: 2024-216 Owner: SPXS Country: US Constellation: starlink operational
LEOCIRCULAR

現在のビュー

3D地球を読み込み中...

About Starlink 32582

Starlink 32582 (NORAD 62033) is a starlink constellation satellite (v2 mini) launched Nov 21, 2024 by SPXS of US. It operates in LEO, CIRCULAR orbit with a mass of 730.00 kg.

次回通過

Passes for default location (London). Set your location on the main map for personalized predictions.

高度履歴

Loading altitude history...

軌道要素

1 62033U 24216B 26265.30017727 .00009656 00000-0 35992-3 0 9994
2 62033 43.0015 232.9847 0001265 271.7669 88.3038 15.27584602103864
Epoch: Sep 22, 2026 • Age: 25 hours

現在のステータス

高度 490.8 km
遠地点 / 近地点 N/A
速度 7.62 km/s
衛星直下点 -31.46°S, 62.77°E
打ち上げ日 Nov 21, 2024
運用期間 1.8 years
タイプ internet

技術仕様

分類 Payload
質量 730.00 kg
乾燥質量 700.00 kg
長さ 0.30 m
スパン 29.00 m
形状 ? Box + pan
製造者 SPXS
バスタイプ Starlink V2M
フェーズステータス In Orbit
所有者/国 SPXS/US

Most Searched